Regional Weather Roundup
Issued by NWS Newport/Morehead, NC

Current Version | Previous Version | Graphics & Text | Print | Product List | Glossary Off
Versions: 1 2 3 4 5 6 7 8 9 10 11 12 13 14 15 16 17 18 19 20 21 22 23 24 25 26 27 28 29 30 31 32 33 34 35 36 37 38 39 40 41 42 43 44 45 46 47 48 49 50

712
ASUS42 KMHX 060224
RWRMHX
WEATHER ROUNDUP FOR EASTERN NORTH CAROLINA
NATIONAL WEATHER SERVICE NEWPORT/MOREHEAD CITY NC
900 PM EST MON DEC 05 2016

NOTE: "FAIR" INDICATES FEW OR NO CLOUDS BELOW 12,000 FEET
WITH NO SIGNIFICANT WEATHER AND/OR OBSTRUCTIONS TO VISIBILITY

NCZ015>017-031-032-045>047-102-103-060300-
NORTH COAST

CITY           SKY/WX    TMP DP  RH WIND       PRES   REMARKS
EDENTON        CLOUDY    49  42  78 CALM      30.10R
ELIZABETH CITY CLOUDY    48  42  80 N6        30.08R
KITTY HAWK     CLOUDY    51  47  87 NE6       30.06R
MANTEO         CLOUDY    51  46  83 NE6       30.07R

$$

NCZ045>047-081-094-103-104-060300-
CENTRAL COAST

CITY           SKY/WX    TMP DP  RH WIND       PRES   REMARKS
FRISCO         PTCLDY    52  47  83 NE8       30.06R

$$

NCZ095-097-098-100-101-060300-
SOUTHERN COAST

CITY           SKY/WX    TMP DP  RH WIND       PRES   REMARKS
BEAUFORT       CLOUDY    52  46  80 VRB7      30.05F
CEDAR ISLAND   NOT AVBL
JACKSONVILLE   CLOUDY    53  49  86 E8        30.07R
PINEY ISLAND   CLOUDY   N/A N/A N/A NE8       30.07R
WILMINGTON     RAIN      53  51  93 NE9       30.05R FOG


$$

NCZ011>013-027>030-043-044-078>080-089-090>093-098-060300-
COASTAL PLAIN

CITY           SKY/WX    TMP DP  RH WIND       PRES   REMARKS
AHOSKIE        CLOUDY    44  43  96 CALM      30.11R
CLINTON        DRIZZLE   54  48  82 E5        30.08R
ELIZABETHTOWN  DRIZZLE   53  49  87 CALM      30.05F
GOLDSBORO      MOCLDY    52  50  92 NE7       30.07R
GREENVILLE     PTCLDY    50  46  87 CALM      30.09F
HAVELOCK       PTCLDY    53  43  68 NE9       30.08R
KENANSVILLE    CLOUDY    52  46  82 E3        30.08R
KINSTON        PTCLDY    50  46  87 NE3       30.09S
NEW BERN       PTCLDY    50  46  86 E6        30.07S
RICHLANDS      CLOUDY    52  49  89 NE3       30.08
ROCKY MOUNT    MOCLDY    50  46  86 N5        30.09R
WASHINGTON     CLOUDY    48  44  86 NE3       30.09R
WHITEVILLE     NOT AVBL

$$

AMZ130-135-150-152-154-156-158-170-250-252-270-ANZ085-086-088-633-658-670-060300-
MARINE OBSERVATIONS

STATION/POSITION TIME  TEMP    WIND        PRES    WAVE   SWELL
                       AIR SEA DIR/SP/G            HT/PER HT/PER
                 (UTC) (F)     (DEG/KT/KT) (MB)    (FT/S) (FT/S)
CHESAPEAKE LIGHT NOT AVBL
64 E VA BEACH    0150   54 60   10/ 17/ 21 1017.2    6/ 6   2/ 8
DUCK             0200   52 54   30/ 11/ 14 1017.6
2 E DUCK         NOT AVBL
OREGON INLET     0200   53 56   40/ 10/ 13 1018.1
13E OREGON INLT  NOT AVBL
HATTERAS CG      0200   53 60   30/ 11/ 14 1017.1
DIAMOND BUOY     0150   58 76   20/ 16/ 19 1017.4    5/ 8   3/ 8
CAPE LOOKOUT     0200   52      20/ 13/ 16 1017.0
BEAUFORT LAB     0200   51 55   40/  8/ 11 1016.5
30 SE NEW RVR IN 0208   57 70   60/ 16/ 23 1016.0
30 SE NEW RVR IN NOT AVBL
27 SE WRIGHTSVLE 0208   62 67   80/ 16/ 21 1016.5
5 SE WRIGHTSVLE  0108   57 62   70/ 12/ 21 1016.6
225 S CAPE HAT   0150   72 74  200/ 12/ 14 1015.6    6/ 6   5/ 6
41 SE CHARLESTON 0150   69 74   70/ 14/ 17 1013.4    4/ 6   2/ 8

$$




USA.gov is the U.S. government's official web portal to all federal, state and local government web resources and services.